Home   Weather   Nisí Nísyros   Past weeks
Flag for Greece

Past Weather in Nisí Nísyros, Greece — Yesterday and Last 2 Weeks

Now
79 °F

Sunny.


Feels Like: 80 °F
Forecast: 79 / 66 °F
Wind: 7 mph from North

Location: Kos Airport

Current Time: Oct 22, 2019 at 2:54:17 pm

Latest Report: Oct 22, 2019 at 1:50 pm


Visibility: 10 mi

Pressure: 29.95 "Hg

Humidity: 54%

Dew Point: 61 °F

Location of Nisí NísyrosLocation

Past Weather in Nisí Nísyros — Graph

°F

Nisí Nísyros Temperature Yesterday

Maximum temperature yesterday: 79 °F (at 1:50 pm)
Minimum temperature yesterday: 70 °F (at 12:20 am)
Average temperature yesterday: 73 °F

High & Low Weather Summary for the Past Weeks

 TemperatureHumidityPressure
High82 °F (Oct 11, 4:20 pm)94% (Oct 9, 1:20 am)30.15 "Hg (Oct 9, 1:20 am)
Low66 °F (Oct 9, 10:50 pm)39% (Oct 21, 2:50 pm)29.77 "Hg (Oct 7, 4:50 pm)
Average72 °F77%30.03 "Hg
* Reported Oct 7 1:20 pm — Oct 22 1:20 pm, Nisí Nísyros. Weather by CustomWeather, © 2019

Note: Actual official high and low records may vary slightly from our data, if they occured in-between our weather recording intervals... More about our weather records

Advertising

Nisí Nísyros Weather History for the Previous 24 Hours

Scroll right to see more
 ConditionsComfort  
Time TempWeatherWind HumidityBarometerVisibility
1:20 pm
Tue, Oct 22
79 °FSunny.5 mph58%29.98 "Hg10 mi
12:50 pm77 °FSunny.5 mph54%29.98 "Hg10 mi
12:20 pm77 °FSunny.8 mph54%29.98 "Hg10 mi
11:50 am75 °FSunny.9 mph61%29.98 "Hg10 mi
11:20 am75 °FSunny.12 mph61%29.98 "Hg10 mi
10:50 am73 °FSunny.12 mph61%29.98 "Hg10 mi
10:20 am73 °FSunny.10 mph61%29.98 "Hg10 mi
9:50 am72 °FSunny.12 mph65%29.98 "Hg10 mi
9:20 am72 °FSunny.13 mph65%29.95 "Hg10 mi
8:50 am70 °FSunny.14 mph69%29.95 "Hg10 mi
8:20 am68 °FSunny.12 mph73%29.92 "Hg10 mi
7:50 am68 °FSunny.12 mph73%29.92 "Hg10 mi
7:20 am70 °FClear.14 mph69%29.92 "Hg10 mi
6:50 am70 °FClear.14 mph69%29.92 "Hg10 mi
6:20 am70 °FClear.14 mph60%29.92 "Hg10 mi
5:50 am70 °FClear.14 mph60%29.92 "Hg10 mi
5:20 am70 °FClear.16 mph64%29.95 "Hg10 mi
4:20 am70 °FClear.16 mph64%29.95 "Hg10 mi
3:50 am70 °FClear.16 mph64%29.95 "Hg10 mi
3:20 am70 °FClear.16 mph64%29.95 "Hg10 mi
2:50 am72 °FClear.16 mph57%29.95 "Hg10 mi
2:20 am72 °FClear.16 mph57%29.95 "Hg10 mi
1:50 am72 °FClear.16 mph57%29.95 "Hg10 mi
1:20 am72 °FClear.17 mph57%29.95 "Hg10 mi
12:50 am72 °FClear.17 mph57%29.95 "Hg10 mi
12:20 am72 °FClear.17 mph57%29.95 "Hg10 mi
11:50 pm
Mon, Oct 21
72 °FClear.17 mph57%29.95 "Hg10 mi
11:20 pm72 °FClear.16 mph57%29.98 "Hg10 mi
10:50 pm72 °FClear.12 mph57%30.01 "Hg10 mi
10:20 pm72 °FClear.12 mph57%30.01 "Hg10 mi
9:50 pm72 °FClear.12 mph57%30.01 "Hg10 mi
9:20 pm72 °FClear.13 mph57%29.98 "Hg10 mi
8:50 pm73 °FClear.13 mph53%29.98 "Hg10 mi
8:20 pm73 °FClear.13 mph53%29.98 "Hg10 mi
7:50 pm73 °FClear.13 mph53%29.98 "Hg10 mi
7:20 pm75 °FClear.15 mph54%29.98 "Hg10 mi
6:50 pm75 °FClear.13 mph54%29.98 "Hg10 mi
6:20 pm77 °FSunny.9 mph47%29.98 "Hg10 mi
5:50 pm77 °FSunny.9 mph47%29.98 "Hg10 mi
5:20 pm79 °FSunny.12 mph42%30.01 "Hg10 mi
4:50 pm79 °FSunny.12 mph42%30.01 "Hg10 mi
4:20 pm79 °FSunny.12 mph39%30.01 "Hg10 mi
3:50 pm79 °FSunny.12 mph39%30.01 "Hg10 mi
3:20 pm79 °FSunny.12 mph39%30.01 "Hg10 mi
2:50 pm79 °FSunny.12 mph39%30.01 "Hg10 mi
2:20 pm79 °FSunny.14 mph48%30.04 "Hg10 mi
Weather by CustomWeather, © 2019

See weather overview